Regional Weather Roundup
Issued by NWS

Home | Current Version | Previous Version | Text Only | Print | Product List | Glossary Off
Versions: 1 2 3 4 5 6 7 8 9 10 11 12 13 14 15 16 17 18 19 20 21 22 23 24 25 26 27 28 29 30 31 32 33 34 35 36 37 38 39 40 41 42 43 44 45 46 47 48 49 50

000
ASUS45 KPSR 261210
RWRAZ

ARIZONA REGIONAL HOURLY WEATHER ROUNDUP
NATIONAL WEATHER SERVICE PHOENIX AZ
500 AM MST FRI DEC 26 2014

NOTE: FAIR INDICATES FEW OR NO CLOUDS BELOW 12,000 FEET WITH NO
SIGNIFICANT WEATHER AND/OR OBSTRUCTIONS TO VISIBILITY.

AZZ001>003-036-261300-
NORTHWEST ARIZONA

CITY           SKY/WX    TMP DP  RH WIND       PRES   REMARKS
BULLHEAD CITY  CLEAR     41  16  36 NE7       29.99R
KINGMAN        CLEAR     28  14  55 SE3       29.91R
6HR MIN TEMP:  25; 6HR MAX TEMP:  32;

$$

AZZ004>008-015-016-018-261300-
NORTH CENTRAL ARIZONA

CITY           SKY/WX    TMP DP  RH WIND       PRES   REMARKS
GRAND CANYON   MOCLDY    19  15  84 CALM      29.77S
6HR MIN TEMP:  18; 6HR MAX TEMP:  20; 6HR PCP: TRACE;

PRESCOTT       CLEAR     22  12  65 W6        29.84R WCI  14
6HR MIN TEMP:  20; 6HR MAX TEMP:  28;

FLAGSTAFF      MOCLDY    17  11  77 VRB7      29.74R WCI   8
6HR MIN TEMP:  14; 6HR MAX TEMP:  17; 6HR PCP: TRACE;

PAYSON         CLEAR     25  10  54 W7        29.83R WCI  17
PAGE           CLOUDY    32  14  47 W3        29.79R
6HR MIN TEMP:  31; 6HR MAX TEMP:  33;

$$

AZZ009>014-017-261300-
NORTHEAST ARIZONA

CITY           SKY/WX    TMP DP  RH WIND       PRES   REMARKS
WINSLOW        CLEAR     20  11  68 CALM      29.80R
6HR MIN TEMP:  20; 6HR MAX TEMP:  30;

SAINT JOHNS    LGT SNOW  21  20  96 NW9       29.76R FOG     WCI  11
6HR MIN TEMP:  22; 6HR MAX TEMP:  30; 6HR PCP: TRACE;

WINDOW ROCK    CLOUDY    15  10  80 CALM      29.70R
6HR MIN TEMP:  11; 6HR MAX TEMP:  23; 6HR PCP: TRACE;

SHOW LOW       PTCLDY    19  14  79 SW8       29.78R WCI   9
$$

AZZ023-261300-
GREATER PHOENIX AREA

CITY           SKY/WX    TMP DP  RH WIND       PRES   REMARKS
PHOENIX        CLEAR     40  17  39 SW5       29.90R
6HR MIN TEMP:  40; 6HR MAX TEMP:  48;

BUCKEYE          N/A     30  18  59 NW3       29.93R
LUKE AFB       CLEAR     37  17  43 NE7       29.90R WCI  32
6HR MIN TEMP:  35; 6HR MAX TEMP:  48;

DEER VALLEY    CLEAR     35  17  47 CALM      29.89R
6HR MIN TEMP:  33; 6HR MAX TEMP:  45;

SCOTTSDALE     CLEAR     36  19  50 CALM      29.91R
6HR MIN TEMP:  36; 6HR MAX TEMP:  47;

MESA-GATEWAY   CLEAR     30  19  64 E3        29.92R
$$

AZZ027-028-261300-
SOUTHWEST MARICOPA COUNTY AND PINAL COUNTY

CITY           SKY/WX    TMP DP  RH WIND       PRES   REMARKS
CASA GRANDE    CLEAR     39  12  33 CALM      29.91R
6HR MIN TEMP:  37; 6HR MAX TEMP:  45;

GILA BEND      FAIR      35  18  49 S6        29.95R WCI  30
6HR MIN TEMP:  35; 6HR MAX TEMP:  45;

$$

AZZ503-504-507>509-261300-
SOUTHEAST ARIZONA

CITY           SKY/WX    TMP DP  RH WIND       PRES   REMARKS
TUCSON         CLOUDY    43  29  57 SW3       29.92R
6HR MIN TEMP:  43; 6HR MAX TEMP:  47;

DAVIS-MONTHAN  MOCLDY    42  31  65 W2        29.89R
6HR MIN TEMP:  42; 6HR MAX TEMP:  45;

NOGALES        CLOUDY    38  33  82 E6        29.89R WCI  33
6HR MIN TEMP:  38; 6HR MAX TEMP:  43; 6HR PCP:  0.03;

SIERRA VISTA   LGT SNOW  34  32  93 NW10      29.88R FOG     WCI  26
6HR MIN TEMP:  34; 6HR MAX TEMP:  41; 6HR PCP:  0.02;

DOUGLAS        CLOUDY    37  33  85 N12       29.86R WCI  29
6HR MIN TEMP:  37; 6HR MAX TEMP:  40; 6HR PCP:  0.22;

SAFFORD        CLOUDY    40  23  50 NW15      29.83R WCI  32
6HR MIN TEMP:  39; 6HR MAX TEMP:  43;

$$

AZZ020-021-025-026-031-261300-
SOUTHWEST ARIZONA

CITY           SKY/WX    TMP DP  RH WIND       PRES   REMARKS
YUMA           CLEAR    N/A N/A N/A E6        29.96R
$$

CAZ031-033-041-043-047-048-061-261300-
SOUTHERN CALIFORNIA

CITY           SKY/WX    TMP DP  RH WIND       PRES   REMARKS
DOWNTOWN L.A.  CLEAR     44  26  49 CALM      29.96S
6HR MIN TEMP:  44; 6HR MAX TEMP:  53;

L.A. AIRPORT   CLEAR     47  21  35 N3        29.97R
6HR MIN TEMP:  45; 6HR MAX TEMP:  53;

SAN DIEGO      CLEAR     48  38  68 N5        29.95S
6HR MIN TEMP:  48; 6HR MAX TEMP:  55;

BURBANK        CLEAR     48  17  29 NW10      29.96R
6HR MIN TEMP:  45; 6HR MAX TEMP:  50;

ONTARIO        CLEAR     44  19  36 N5        29.95R
6HR MIN TEMP:  39; 6HR MAX TEMP:  56;

RIVERSIDE      CLEAR     50  12  21 NE9       29.97S
6HR MIN TEMP:  48; 6HR MAX TEMP:  53;

PALM SPRINGS   CLEAR     47  14  26 SW3       30.00R
6HR MIN TEMP:  46; 6HR MAX TEMP:  57;

EL CENTRO NAS  CLEAR     38  22  52 W7        29.98R WCI  33
6HR MIN TEMP:  38; 6HR MAX TEMP:  54;

IMPERIAL       CLEAR     38  24  57 W8        29.97S WCI  32
6HR MIN TEMP:  38; 6HR MAX TEMP:  53;

BLYTHE         CLEAR     44  16  32 N13       29.96S
6HR MIN TEMP:  41; 6HR MAX TEMP:  50;

NEEDLES        CLEAR     45  12  26 N9        29.97R
6HR MIN TEMP:  45; 6HR MAX TEMP:  50;

$$

NVZ020-UTZ003-261300-
SOUTHERN NEVADA-UTAH

CITY           SKY/WX    TMP DP  RH WIND       PRES   REMARKS
LAS VEGAS      CLEAR     43   9  24 NW20G30   29.93R
6HR MIN TEMP:  42; 6HR MAX TEMP:  45;

SALT LAKE CITY MOCLDY    25  21  85 VRB6      29.89R WCI  18
6HR MIN TEMP:  21; 6HR MAX TEMP:  27;

$$

NMZ009-TXZ055-261300-
NEW MEXICO-WEST TEXAS

CITY           SKY/WX    TMP DP  RH WIND       PRES   REMARKS
ALBUQUERQUE    MOCLDY    31  30  96 SE5       29.73F WCI  26
6HR MIN TEMP:  31; 6HR MAX TEMP:  39; 6HR PCP:  0.03;

EL PASO        MOCLDY    45  33  63 NW13      29.80R
6HR MIN TEMP:  45; 6HR MAX TEMP:  54;

$$


........................KEY........................
SKY/WX - SKY CONDITION/WEATHER
TMP    - TEMPERATURE IN FAHRENHEIT
DP     - DEW POINT IN FAHRENHEIT
RH     - RELATIVE HUMIDITY IN PERCENT
WIND   - DIRECTION AND SPEED IN MILES PER HOUR (MPH)
VRB    - VARIABLE WIND DIRECTION
PRES   - MEAN SEA LEVEL PRESSURE IN INCHES OF MERCURY
         F - FALLING PRESSURE   R - RISING PRESSURE
         S - STEADY PRESSURE
VSB    - VISIBILITY IN MILES
HX     - HEAT INDEX IN FAHRENHEIT
WCI    - WIND CHILL INDEX IN FAHRENHEIT
TC     - TEMPERATURE IN CELSIUS WHICH IS ALSO KNOWN AS
         TEMPERATURE IN CENTIGRADE
AFB    - AIR FORCE BASE
         LUKE AFB IS LUKE AIR FORCE BASE
         DAVIS-MONTHAN IS DAVIS-MONTHAN AIR FORCE BASE
NAS    - NAVAL AIR STATION
         EL CENTRO NAS IS EL CENTRO NAVAL AIR STATION
N/A    - NOT AVAILABLE


USA.gov is the U.S. government's official web portal to all federal, state and local government web resources and services.